Theta_e
314 314 314 314 314 314 313 312 312 311 310 309 308 308 307 306 305 304 304 303 303 302 302 301 301 301 301 302 303 303 304 304 303 304 304 303 303 303 302 301 301 300 300 299 299 298 297 297 297 296 295 294 293 293 293 294 295 295 295 295 295 295 295 295 295 295 295 295 295 295 295 295 295 295 295 295 295 295 295 295 295 295 296 296 296
313 313 313 313 312 312 312 311 311 310 309 309 308 307 307 306 305 304 303 303 302 301 300 299 299 298 299 300 302 303 304 304 303 303 303 303 302 302 302 301 301 300 299 299 298 297 297 297 297 296 295 295 294 293 293 293 294 295 295 295 295 295 295 295 295 295 295 295 295 295 295 295 295 295 295 295 295 295 296 296 296 296 296 296 296
313 312 312 312 312 312 312 311 311 310 309 308 308 307 306 305 305 304 303 302 302 301 299 297 296 295 296 298 300 303 304 304 303 303 303 302 302 302 301 301 300 300 299 298 298 297 297 297 296 296 295 295 294 293 293 293 293 294 294 294 295 295 295 295 295 295 295 295 295 295 295 295 295 295 295 295 295 295 295 296 295 296 295 295 295
312 312 312 312 312 312 311 311 310 308 308 307 307 306 306 305 305 303 303 302 302 300 298 295 294 293 294 296 299 302 303 303 303 303 303 302 302 301 301 300 300 299 299 298 297 297 297 297 296 296 295 295 294 293 293 293 293 293 293 294 294 295 295 295 295 295 295 295 295 295 294 294 294 295 295 295 295 295 295 295 295 295 295 295 295
312 312 312 312 311 311 310 309 309 308 307 307 306 306 306 305 304 303 303 302 301 298 295 293 293 293 294 295 299 302 303 303 303 303 302 302 302 301 300 300 299 299 298 298 297 297 297 297 296 296 295 295 294 293 293 293 293 293 293 293 294 294 294 294 294 295 295 295 295 294 294 294 294 294 294 295 295 295 295 295 295 295 295 295 295
312 311 311 310 310 309 309 308 308 307 307 306 306 306 305 305 304 303 303 302 299 296 294 293 293 294 295 296 299 301 303 303 302 302 302 302 301 300 300 300 299 299 298 298 297 297 297 297 296 296 295 294 293 293 293 293 293 293 293 293 293 293 293 294 294 294 294 294 294 294 294 294 294 294 294 295 295 295 295 295 295 295 295 295 295
311 310 310 310 309 309 308 308 307 307 306 306 305 305 305 304 303 303 302 301 298 296 293 293 293 294 295 297 299 300 302 302 302 302 302 301 300 299 299 299 299 298 298 297 297 297 296 296 296 296 294 293 293 293 293 293 293 293 293 293 293 293 293 293 294 294 294 294 294 294 294 294 294 294 294 294 295 295 295 295 295 295 295 295 295
310 310 310 309 309 308 307 307 306 306 306 305 305 305 305 304 303 303 301 300 298 296 293 293 294 295 296 297 298 300 301 301 301 302 301 301 300 300 299 299 299 298 298 297 297 297 296 297 296 295 294 293 293 293 293 293 293 293 293 293 293 293 293 293 293 294 294 294 294 294 294 294 294 294 294 294 295 295 295 295 295 295 295 295 295
310 310 309 309 308 307 307 306 306 306 306 305 305 305 305 304 303 302 301 300 298 295 292 293 294 295 296 297 298 299 300 301 301 301 301 301 300 300 299 299 298 298 298 297 297 297 297 297 296 294 294 293 293 293 293 293 293 293 293 293 293 293 293 293 293 293 293 293 294 294 294 294 294 294 294 294 295 295 295 295 295 295 295 295 295
310 310 309 308 307 307 306 306 305 305 305 305 305 304 304 304 302 302 301 299 296 293 293 294 294 295 296 297 297 298 299 299 300 300 300 300 300 300 299 299 298 298 298 298 297 297 297 296 295 294 294 294 293 293 294 294 293 294 294 294 294 293 293 293 293 293 293 293 293 293 293 293 293 294 294 294 295 295 295 295 295 295 295 295 295
309 309 309 308 307 306 306 305 305 305 305 305 305 304 304 303 302 301 299 295 293 292 293 293 294 295 296 296 297 298 298 298 299 299 299 300 299 299 299 298 297 297 298 298 297 297 296 296 295 295 294 294 294 294 294 294 294 294 294 294 294 293 293 293 293 293 293 293 293 293 293 293 293 294 294 294 294 294 294 294 294 294 295 295 295
309 309 308 307 307 306 305 305 305 305 305 305 305 304 304 303 302 300 296 292 291 292 292 292 293 294 295 296 296 297 297 298 298 299 299 299 299 299 299 298 298 298 298 298 297 296 296 295 295 295 295 294 294 294 294 294 294 294 294 294 293 293 293 293 293 293 293 293 293 293 293 293 293 294 294 294 294 294 294 294 294 294 294 295 295
308 308 307 307 306 305 305 305 304 304 304 304 304 304 303 302 301 300 297 294 292 291 291 291 292 292 293 294 295 296 297 297 298 298 298 298 298 298 298 298 298 298 298 298 297 296 296 295 296 296 295 294 294 294 294 294 294 294 294 294 294 293 293 293 293 293 293 293 293 293 293 293 293 293 294 294 294 294 294 294 294 294 294 294 294
307 307 306 306 305 305 305 304 304 304 304 304 304 304 303 302 301 301 300 298 296 294 292 291 291 291 291 292 292 294 295 296 297 298 297 297 297 297 297 297 297 298 298 297 297 296 295 296 296 295 294 294 294 294 294 294 294 294 294 294 293 293 293 293 293 293 293 293 293 293 293 293 293 293 293 293 293 293 293 293 294 294 294 294 294
306 306 305 305 305 304 304 304 304 304 304 304 304 304 303 302 302 302 301 301 300 299 297 295 293 291 291 291 291 291 292 293 295 296 297 296 295 293 294 296 297 297 297 297 297 296 296 296 296 295 294 294 294 294 294 294 294 293 293 293 293 293 293 293 293 293 293 292 292 292 292 292 292 293 293 293 293 293 293 293 293 294 294 294 294
305 305 305 304 304 304 304 303 304 304 304 304 304 304 303 303 302 302 302 302 301 301 300 299 296 293 291 291 290 290 290 291 292 293 294 294 292 291 291 294 296 297 296 297 296 296 296 296 296 295 294 294 294 294 294 294 294 293 293 293 293 293 293 293 293 293 292 292 292 292 292 292 292 292 293 293 293 293 293 293 293 293 293 293 293
305 304 304 304 304 304 304 303 304 304 304 304 303 303 303 303 303 302 302 302 301 301 301 300 296 294 293 292 291 291 290 290 290 290 291 291 291 290 291 293 295 296 296 296 296 295 295 295 295 294 294 294 294 294 294 294 294 293 294 294 293 293 293 293 292 292 291 292 292 292 292 292 292 292 293 293 293 293 293 293 293 293 293 293 293
304 304 304 304 304 304 303 303 304 303 303 303 303 303 303 303 303 302 302 302 301 301 301 299 295 294 295 294 293 293 291 290 290 290 290 290 290 290 291 293 294 295 295 295 294 294 294 294 294 294 294 294 294 294 294 294 294 294 294 293 293 293 293 292 292 291 291 292 292 292 292 292 292 292 293 293 293 293 293 293 293 292 292 292 292
304 303 303 303 303 303 303 303 303 303 303 303 302 302 302 302 302 302 302 302 302 301 300 297 295 296 297 296 296 294 293 291 290 290 290 290 290 291 292 293 294 294 294 294 294 294 294 294 294 294 294 294 294 294 294 294 294 294 294 293 293 293 292 292 291 291 291 291 291 291 291 292 292 292 293 293 293 293 293 293 293 292 292 292 292
303 303 303 303 303 303 303 303 303 303 302 302 301 301 301 301 300 299 299 299 299 299 297 296 297 298 298 298 297 295 294 292 290 290 290 290 290 291 293 294 294 294 294 294 293 294 294 294 294 294 294 294 294 294 294 294 293 293 293 293 293 293 292 291 291 291 291 291 291 291 291 291 292 292 293 293 293 293 293 293 292 292 292 292 291
303 303 303 302 302 303 303 303 303 302 301 301 301 301 301 300 298 296 295 295 296 297 297 298 299 299 299 299 298 296 294 293 291 290 290 290 291 292 293 294 294 294 294 294 293 294 294 294 294 294 294 295 294 294 294 293 293 293 292 292 292 292 291 291 291 291 291 291 291 291 291 291 291 292 292 292 292 293 293 293 292 292 292 291 291
302 302 302 302 302 302 302 302 302 301 301 301 301 301 300 299 298 297 297 298 298 298 299 299 299 299 299 299 299 297 295 294 292 290 290 290 291 292 293 294 294 294 293 293 293 294 294 294 294 294 295 295 294 294 294 293 293 292 292 292 292 291 290 290 291 291 291 291 290 291 291 291 291 291 292 292 292 293 293 293 293 292 292 291 291
302 302 302 302 302 302 302 302 301 301 301 301 300 300 300 299 299 299 299 300 300 299 299 299 299 299 299 299 299 297 295 294 292 290 290 291 292 292 293 294 293 293 293 293 294 294 294 295 295 295 295 295 294 293 293 293 293 292 292 291 291 291 290 290 290 290 290 290 290 290 291 291 291 291 292 292 292 293 293 293 292 292 292 291 291
302 301 301 301 301 302 302 301 301 301 301 300 300 300 300 300 300 300 300 300 300 299 300 300 299 299 299 299 299 298 296 294 293 291 290 291 292 293 293 293 293 293 293 294 294 294 295 295 295 295 295 294 294 293 293 293 293 292 292 291 291 291 290 290 290 290 290 290 290 290 290 290 290 291 291 292 292 293 293 293 292 292 292 291 291
301 301 301 301 301 301 302 301 301 301 300 300 300 300 300 300 300 300 300 300 299 300 300 300 299 300 299 299 299 298 296 295 294 291 290 291 292 293 293 293 293 294 294 294 294 295 295 295 295 295 295 294 294 293 293 293 293 292 292 291 291 290 290 290 290 290 290 290 290 290 290 290 290 291 291 292 292 293 293 293 292 292 292 291 291
301 301 301 301 301 301 301 301 301 301 300 300 300 300 300 300 300 300 300 299 299 300 300 300 300 300 300 300 300 299 297 295 295 293 291 290 292 293 293 293 294 294 294 295 295 295 295 295 295 295 295 294 293 293 293 293 293 292 291 291 291 290 290 290 290 290 290 290 290 290 290 290 291 291 291 292 292 293 293 293 292 292 292 291 291
301 301 301 301 301 301 301 301 301 301 300 300 300 300 300 300 300 299 299 299 300 300 300 300 300 300 300 300 300 299 297 296 295 294 292 290 292 294 294 294 294 295 295 295 295 295 295 295 295 295 295 294 293 293 293 293 292 291 291 291 291 290 290 290 290 290 290 290 290 290 290 291 291 291 291 292 292 293 293 293 292 292 292 291 291
300 300 301 301 301 301 301 301 301 300 300 300 300 300 300 299 299 300 300 300 301 301 301 301 300 300 299 299 299 299 297 295 296 295 293 290 291 294 295 294 295 295 295 295 296 295 295 295 295 294 294 294 293 293 293 293 293 292 291 291 290 290 289 290 290 290 290 290 290 290 290 290 290 290 291 291 292 293 293 293 292 292 292 291 291
300 300 300 300 301 301 301 301 301 300 301 301 300 300 301 300 300 301 301 301 301 301 301 300 300 299 299 299 299 298 297 296 296 295 292 291 291 293 294 295 295 295 295 295 296 296 296 295 295 294 294 294 293 293 293 293 293 292 292 291 290 289 289 289 290 290 290 290 290 290 290 290 290 290 290 291 291 292 293 293 292 292 292 292 291
300 300 300 300 300 301 300 301 301 301 301 301 301 301 301 300 301 301 301 301 301 300 299 299 299 299 299 298 298 297 297 297 296 294 291 291 291 292 294 295 295 295 295 295 296 296 296 296 295 294 293 293 293 293 293 293 293 292 292 291 289 288 288 289 290 290 290 290 290 290 290 290 290 290 290 290 291 292 292 293 292 292 292 292 292
300 300 300 300 300 300 300 300 301 301 301 301 301 301 301 301 301 301 301 301 300 299 299 299 299 299 299 298 297 298 297 296 294 292 291 291 292 293 294 295 295 295 295 295 296 297 296 296 295 294 293 293 293 293 293 293 293 292 292 292 290 288 287 289 290 290 290 290 290 290 290 290 289 290 290 290 291 291 292 292 292 292 292 292 291
300 300 300 300 300 300 300 300 300 300 300 300 300 301 301 300 300 300 300 301 300 299 299 299 299 299 298 297 296 296 296 293 292 291 292 293 293 294 295 295 295 295 295 296 296 297 296 296 295 294 293 293 293 293 293 293 293 293 292 292 290 288 287 289 290 290 290 290 290 290 290 290 289 290 290 290 290 291 292 292 292 292 292 292 292
300 300 300 301 300 300 300 300 300 300 300 300 300 301 300 300 299 298 298 298 298 299 299 299 299 298 296 294 293 293 293 292 292 292 292 294 294 295 295 295 295 295 295 296 296 296 296 296 296 294 294 293 293 293 293 293 293 293 292 291 291 289 288 288 289 290 290 290 290 290 290 290 290 289 290 290 290 291 291 292 292 292 292 292 292
301 301 301 301 301 300 300 300 300 301 301 301 300 300 300 300 299 298 296 295 295 295 295 296 296 295 294 294 293 292 293 295 294 292 293 295 295 295 295 296 296 296 296 296 296 296 297 296 296 295 294 294 294 293 293 293 293 293 292 292 291 290 289 288 289 290 290 290 290 290 290 290 290 289 289 290 290 291 291 291 292 292 291 291 291
301 301 301 301 301 300 300 300 301 301 301 301 300 300 300 300 300 299 298 297 295 294 293 294 294 293 294 296 295 293 295 296 296 294 294 295 295 295 296 296 296 296 296 296 296 297 297 297 296 295 294 294 294 293 293 293 293 293 292 292 291 291 290 289 288 289 290 289 289 290 290 290 290 290 289 290 290 290 290 291 292 292 291 291 291
301 300 301 301 301 301 300 300 300 301 301 301 300 300 300 300 300 300 300 300 298 296 295 296 296 295 295 297 297 296 296 297 297 296 295 295 295 295 296 296 296 297 296 297 297 297 297 297 296 295 294 295 294 294 294 293 293 293 293 292 291 291 290 289 288 289 289 289 289 289 290 290 290 290 290 290 290 289 290 291 292 292 292 291 291
301 300 301 301 301 301 300 300 300 301 301 301 301 300 300 300 300 300 300 300 299 298 297 298 298 297 297 297 298 298 297 297 297 297 296 296 296 296 296 296 296 297 297 297 297 297 297 297 296 295 295 295 295 294 294 293 293 293 293 292 292 291 291 290 289 288 289 289 289 289 289 290 290 290 290 290 290 290 290 290 291 292 293 292 291
301 300 301 300 300 300 300 300 300 300 301 301 301 301 300 300 301 301 300 299 299 298 298 298 299 298 298 299 299 298 298 297 297 297 297 297 297 297 297 297 296 296 296 297 297 297 297 297 296 295 295 295 295 295 295 294 293 293 292 292 292 291 291 291 290 289 289 289 289 289 289 290 290 290 290 290 290 290 290 290 291 292 293 292 292
300 300 300 300 300 300 300 300 299 300 300 301 301 301 301 301 301 300 300 299 298 298 298 299 299 299 299 299 299 299 298 298 298 298 298 298 297 297 297 296 296 296 296 296 297 297 297 297 296 296 296 296 296 295 295 295 294 293 292 292 292 292 291 291 291 289 289 288 288 288 289 289 290 290 290 290 290 290 290 290 291 292 293 293 293
300 300 301 301 300 300 300 300 300 299 299 300 300 301 301 300 300 300 300 299 299 298 298 299 299 300 300 300 299 299 299 299 299 299 299 299 298 298 297 296 296 296 296 296 296 297 297 297 296 296 296 296 296 296 295 295 294 294 293 292 292 292 291 291 291 290 289 289 288 288 288 289 289 290 290 291 290 291 291 291 291 292 293 294 293
300 300 301 301 300 300 301 301 300 300 299 299 300 301 301 301 300 300 300 300 299 299 299 300 300 300 300 300 300 300 299 299 299 299 299 299 299 299 298 297 296 296 296 295 296 297 297 297 297 296 296 296 296 296 296 295 295 294 293 292 292 292 292 291 291 291 290 289 289 288 288 289 289 289 290 290 290 291 291 291 291 291 293 294 294
301 301 301 301 301 300 300 301 301 301 300 299 300 301 301 301 301 300 300 300 300 300 300 300 300 300 300 300 299 299 299 299 299 299 299 299 299 299 299 298 297 296 296 296 296 297 297 297 297 297 297 297 297 296 296 296 295 295 294 293 293 292 292 292 291 291 291 291 289 288 288 288 289 289 290 290 290 290 291 291 291 291 292 293 294
301 301 301 301 301 301 301 301 301 301 301 301 301 301 301 301 301 301 300 300 301 300 300 300 300 300 300 300 299 299 299 299 299 299 299 299 299 299 299 298 297 297 297 297 297 297 297 297 297 297 297 297 297 297 296 296 296 295 294 294 293 293 293 292 292 291 291 291 290 289 288 288 288 289 289 290 290 290 290 291 291 290 291 292 293
301 301 302 301 302 302 302 301 301 301 301 301 301 301 301 301 301 301 300 300 300 300 300 300 300 300 300 300 300 299 299 299 299 299 299 299 299 299 299 298 298 297 297 298 298 297 297 297 297 297 297 297 297 297 297 296 296 296 295 294 294 294 293 293 292 292 291 291 291 290 289 288 288 289 289 289 290 290 290 290 290 290 290 291 292
301 302 302 302 302 302 302 302 302 302 301 301 301 301 301 301 301 301 301 300 300 300 300 300 300 300 300 300 300 299 299 299 299 299 299 299 299 299 299 298 298 298 298 298 298 298 297 297 297 297 297 297 297 297 297 297 296 296 296 295 295 294 294 293 293 292 292 292 292 291 290 288 288 289 289 289 290 290 290 290 290 290 290 290 290
301 301 302 302 302 302 302 302 302 302 301 300 301 301 301 301 301 301 301 301 300 300 300 300 300 300 300 300 300 300 300 299 299 299 299 299 299 299 299 299 298 298 298 298 299 298 298 298 297 297 297 297 297 297 297 297 296 296 296 296 295 295 295 294 293 293 292 292 292 292 291 290 288 288 289 289 289 289 290 290 290 290 290 290 290
301 300 301 301 301 301 302 302 302 301 301 300 301 301 301 301 301 301 301 301 301 300 300 300 299 300 300 300 300 300 300 300 300 300 299 299 299 299 299 299 299 299 298 298 298 299 298 298 298 298 298 298 298 298 297 297 297 297 296 296 296 295 295 294 294 293 293 292 292 292 292 291 289 288 288 289 289 289 290 290 290 290 290 290 290
301 301 301 302 301 301 302 302 301 301 301 300 300 301 300 300 300 300 301 301 301 301 300 300 300 300 300 300 300 299 299 299 299 299 299 299 299 299 299 299 299 299 299 298 298 298 298 298 298 298 298 298 298 298 298 298 297 297 297 296 296 296 295 295 294 294 294 293 292 292 292 292 291 289 289 289 290 290 290 289 290 290 289 289 290
301 301 302 302 302 302 302 301 301 301 301 301 300 300 300 300 300 300 300 301 301 300 300 300 300 300 300 300 300 299 299 299 299 299 299 299 299 299 299 299 299 299 299 299 299 298 298 298 298 298 298 298 298 298 298 298 297 297 297 297 296 296 296 295 295 295 294 294 293 292 292 293 292 291 289 289 289 290 290 290 290 290 289 289 289
301 301 301 302 302 302 302 302 302 301 301 301 300 300 300 300 300 300 300 300 300 300 300 300 300 300 300 300 300 299 299 299 299 299 299 299 298 298 298 298 298 299 299 299 299 299 298 298 298 298 298 298 298 298 298 298 298 297 297 297 297 296 296 296 295 295 295 294 294 293 292 293 293 292 290 289 289 290 291 291 290 290 289 289 289
301 301 302 302 302 302 302 302 301 301 301 301 301 301 300 300 300 300 300 300 300 300 300 300 300 300 300 299 299 300 299 299 299 299 299 299 299 298 298 298 298 299 298 298 299 299 299 298 298 298 298 298 298 298 298 298 298 298 297 297 297 297 296 296 296 295 295 295 294 294 293 293 293 293 292 290 289 290 291 291 291 290 290 289 289
Wind_Speed
16 17 17 17 18 19 19 20 20 19 19 19 20 20 19 19 18 18 17 15 13 12 11 10 10 10 12 13 14 15 16 16 16 16 16 16 15 14 13 13 14 14 14 15 15 16 15 15 15 16 19 22 25 26 25 23 19 17 17 17 18 17 16 15 12 12 18 22 24 26 28 30 31 32 33 34 35 35 34 34 36 37 38 38 37
17 17 17 17 18 19 20 20 20 20 20 20 21 20 19 19 18 17 17 14 12 10 10 9 8 9 10 12 14 14 15 15 16 15 16 15 14 13 12 12 12 12 12 13 13 14 14 13 13 15 18 22 23 23 23 23 20 17 17 17 19 19 18 18 16 15 18 23 25 26 27 27 28 30 32 33 35 37 37 37 36 35 36 37 38
17 17 18 18 18 18 19 20 21 21 21 21 21 20 20 19 17 17 17 15 12 10 8 8 8 9 10 12 14 14 15 15 15 15 15 15 14 13 11 10 10 11 11 11 11 11 11 11 12 14 17 21 22 21 20 21 21 19 18 17 18 20 20 19 19 18 19 22 25 26 27 28 28 29 31 32 33 35 38 39 38 37 37 37 38
17 18 19 18 17 18 20 23 23 22 22 22 22 21 20 19 18 18 17 14 12 10 7 7 8 10 11 13 15 15 15 14 14 14 14 13 13 12 11 9 9 10 10 10 10 9 9 10 11 13 17 20 21 21 19 19 20 20 19 19 18 19 21 21 21 20 21 22 25 27 28 28 28 29 31 31 31 33 36 38 39 39 38 37 37
20 19 19 19 20 22 24 25 24 23 24 23 23 22 21 19 19 18 16 14 11 9 8 8 10 11 12 13 15 16 15 14 14 13 12 11 12 12 11 9 9 9 8 9 10 8 7 8 10 12 16 19 20 20 18 18 19 20 20 21 20 21 22 23 24 23 22 23 25 28 28 28 28 30 31 30 31 33 33 36 38 39 40 40 39
21 21 22 23 25 25 25 24 24 24 24 24 23 23 21 20 19 17 15 13 12 10 10 10 11 12 13 14 15 15 14 13 13 12 11 12 12 11 10 8 8 8 8 8 8 7 7 8 9 11 15 18 18 18 17 18 19 21 22 23 23 24 25 26 26 25 24 24 26 27 28 28 29 29 30 31 31 31 32 34 36 38 40 41 41
24 25 25 25 25 24 24 24 24 24 23 24 24 23 22 20 19 17 14 13 11 10 10 11 12 13 13 14 15 15 14 13 13 12 11 11 11 10 9 8 8 7 6 7 6 8 8 6 7 11 15 16 16 16 16 17 19 22 23 25 26 26 26 27 27 26 25 25 25 26 27 28 28 30 31 32 30 29 29 31 31 35 40 40 41
27 26 25 24 24 24 24 24 24 24 24 24 24 23 22 21 19 17 14 12 11 10 10 11 13 14 14 15 15 14 14 13 12 11 10 9 9 8 7 7 7 7 5 5 4 6 7 5 7 12 15 15 15 15 16 18 20 23 25 27 28 28 28 28 28 27 26 25 25 26 27 27 28 30 31 30 27 27 29 30 29 31 37 40 39
27 26 25 24 24 25 25 25 25 25 25 25 25 24 22 21 19 17 15 13 11 10 10 12 13 14 15 15 15 14 14 13 11 10 9 8 8 7 6 6 6 5 4 3 2 3 4 4 8 13 14 15 15 16 17 19 21 25 28 29 30 29 28 28 28 27 25 24 25 26 25 25 27 29 29 27 27 29 32 32 30 30 34 39 39
27 26 25 25 26 26 26 26 25 25 25 26 25 24 23 21 20 18 16 13 12 11 12 13 14 14 14 14 14 14 13 12 11 9 8 8 7 5 5 6 6 4 2 2 1 2 3 3 9 13 15 16 17 17 18 21 23 26 29 30 31 30 29 28 28 27 25 23 24 26 24 24 27 28 28 29 31 32 33 32 31 32 32 32 34
27 26 26 27 27 27 27 26 26 25 26 26 26 25 24 23 22 20 17 15 14 14 14 15 14 13 13 13 13 13 12 11 10 8 7 6 4 4 5 6 5 6 3 1 2 3 3 3 11 15 17 17 17 18 20 24 26 28 29 29 30 29 29 29 29 29 27 25 26 27 25 25 29 30 30 32 33 33 33 33 32 32 30 23 22
28 28 28 28 29 28 28 27 27 27 27 27 26 26 25 26 24 22 19 17 16 17 16 15 15 13 13 13 12 12 11 9 8 7 6 5 4 4 5 5 4 6 5 1 3 4 2 5 13 17 19 18 17 20 24 27 29 29 29 29 30 28 27 27 28 30 29 27 27 28 28 28 30 31 32 34 36 35 35 34 31 30 30 24 22
29 29 30 30 30 30 29 28 28 28 28 27 26 26 26 27 25 22 20 18 17 18 17 16 15 14 13 12 12 11 10 8 7 6 5 4 3 2 3 4 4 4 5 3 4 5 1 7 13 18 18 17 19 23 27 30 31 30 30 30 30 28 27 28 28 29 30 29 29 29 32 32 31 32 36 37 38 38 36 34 33 31 30 28 29
29 29 30 31 31 31 30 29 29 28 28 28 27 26 26 26 24 22 20 18 16 17 17 16 16 15 13 12 12 10 9 7 6 5 4 3 2 2 2 1 4 4 4 4 4 3 2 8 14 17 17 18 21 25 29 31 32 31 30 30 29 29 29 30 30 30 30 30 31 32 35 36 34 36 39 40 39 39 36 36 37 36 35 35 37
29 29 30 30 31 31 31 30 30 29 29 29 28 27 26 25 24 22 20 18 15 14 13 13 13 14 14 13 13 12 10 7 5 4 3 2 1 0 1 2 3 5 6 5 4 1 4 9 14 17 18 20 23 26 29 30 29 29 29 28 28 30 31 31 31 32 32 32 33 34 36 37 36 37 40 42 41 40 38 39 41 41 40 37 35
29 29 30 30 31 32 31 31 31 30 30 29 29 28 26 24 23 22 20 18 15 13 12 10 10 12 13 13 13 13 11 8 5 3 2 1 1 3 4 3 4 5 7 7 5 3 4 8 13 16 19 21 24 25 26 26 26 28 30 29 29 31 32 31 31 32 33 34 34 36 37 37 36 37 40 42 42 42 42 41 40 38 35 29 27
29 30 30 31 32 32 32 32 31 31 30 29 29 28 27 25 23 22 21 19 17 15 12 11 10 10 12 12 13 13 12 9 7 5 5 5 5 6 6 4 5 6 7 6 5 4 4 7 12 16 20 23 24 24 23 23 25 28 30 31 31 32 32 33 33 34 34 34 35 36 37 37 36 37 40 41 42 43 42 38 37 35 29 20 18
30 31 31 32 33 33 33 33 32 32 31 30 30 28 27 26 24 22 21 19 18 16 13 12 12 11 10 10 10 11 11 9 8 7 7 8 8 8 7 6 6 6 6 5 4 4 6 9 12 17 21 23 22 22 22 23 25 28 30 31 32 32 32 34 36 36 35 35 36 37 38 37 36 37 40 41 42 42 39 37 38 36 30 23 19
31 32 32 33 33 34 34 33 33 33 32 30 30 28 27 26 24 23 21 20 18 16 15 14 14 12 10 8 7 8 10 9 8 7 8 9 9 8 7 8 9 8 7 6 5 6 9 11 14 18 22 21 19 21 23 24 26 28 29 31 31 31 32 34 35 36 36 36 38 39 39 38 37 37 40 43 42 41 38 37 38 36 33 30 28
32 33 33 34 34 35 35 35 34 33 32 30 29 28 27 25 23 22 21 20 19 18 16 15 14 12 10 8 6 6 7 8 8 8 8 8 9 8 8 9 10 9 8 7 8 10 12 13 15 18 21 19 17 21 24 24 26 27 27 29 30 29 32 33 33 34 35 36 38 38 39 39 38 39 42 43 42 41 39 38 38 36 33 34 33
32 33 34 35 35 35 36 35 34 32 31 30 30 28 26 24 23 22 22 21 20 19 18 15 13 12 10 8 7 5 5 7 8 8 8 8 7 6 7 8 8 7 7 8 10 12 14 15 16 18 20 18 16 20 23 24 24 25 25 26 26 27 31 32 33 34 34 35 37 38 39 38 39 40 42 43 42 41 41 40 38 36 33 33 34
33 34 35 35 35 36 36 35 34 32 31 30 29 28 25 24 23 22 22 21 20 18 17 15 13 12 11 9 8 6 4 5 7 8 7 7 7 5 6 5 6 7 8 10 12 13 15 16 16 18 18 17 16 19 22 23 23 24 25 25 25 28 31 31 32 33 34 35 36 37 38 38 39 40 41 42 43 43 42 41 39 37 35 34 33
34 35 35 35 35 35 35 34 33 32 31 30 29 27 26 24 24 23 22 22 20 18 17 16 15 14 13 12 10 7 4 3 5 6 7 7 6 5 4 4 5 7 8 11 13 14 15 15 16 17 16 15 16 19 22 22 22 24 26 27 26 29 31 31 32 32 33 34 35 36 37 38 38 39 40 43 45 44 43 42 39 38 38 37 34
35 35 36 36 35 35 35 34 33 32 31 30 28 28 27 26 25 24 24 23 22 20 18 18 17 16 15 15 13 10 6 3 2 5 5 5 5 4 3 3 5 6 8 10 12 14 15 15 16 17 15 13 16 20 22 21 22 24 27 28 28 30 31 32 32 32 32 34 34 34 37 39 39 39 40 43 44 42 42 42 39 37 38 38 33
36 36 36 36 36 35 34 34 33 32 31 30 29 29 28 27 26 25 25 24 23 21 20 19 19 17 17 17 16 13 9 5 1 3 4 4 2 2 2 3 5 6 8 10 11 13 14 14 14 15 13 12 16 21 22 22 23 26 28 29 30 31 32 32 31 31 31 32 33 34 37 39 40 40 41 43 42 40 42 44 42 41 42 40 35
36 36 36 35 35 35 35 34 33 32 31 30 29 28 27 27 27 26 26 25 23 21 19 19 18 18 18 18 18 16 13 8 3 0 2 2 1 2 2 3 4 6 8 9 11 12 12 12 14 14 12 12 16 21 22 22 24 27 29 30 30 31 31 32 31 31 31 32 34 35 37 40 42 42 42 43 41 40 42 43 42 42 43 41 36
36 35 35 35 35 35 35 34 33 32 31 30 28 26 26 26 26 26 26 25 22 20 18 16 16 18 19 19 19 18 15 10 6 3 2 1 1 2 2 1 4 6 8 9 11 11 11 12 13 13 11 12 15 19 21 23 26 29 30 30 30 30 30 30 30 31 32 32 34 36 39 41 42 42 42 42 41 40 42 42 40 40 42 39 33
36 35 35 34 34 35 35 34 33 32 31 30 28 26 25 24 24 24 23 22 21 20 18 16 16 17 18 18 19 19 16 12 8 5 4 2 2 2 2 2 5 7 10 12 12 11 11 12 12 11 11 12 14 18 21 23 25 29 30 30 30 30 30 29 30 31 33 33 34 36 39 41 42 41 41 41 41 41 42 41 40 39 40 38 32
35 34 34 34 34 33 33 33 32 31 31 30 28 26 24 24 23 22 20 19 18 18 17 17 18 17 15 15 17 18 16 13 9 7 5 3 3 3 4 4 6 8 11 14 14 11 11 12 12 11 12 13 15 18 20 22 24 28 30 31 31 31 30 30 31 32 33 34 35 36 37 39 40 41 41 41 41 42 41 41 40 38 38 37 33
34 33 33 33 33 33 32 32 31 31 30 30 27 25 24 23 22 20 18 17 16 16 15 15 16 16 14 13 13 12 11 10 9 7 5 4 3 3 4 6 7 9 11 14 14 12 11 12 12 10 11 13 14 17 18 20 23 27 29 31 31 31 30 29 30 31 32 34 34 35 37 38 39 40 39 39 41 42 41 40 39 37 36 34 32
33 32 33 33 33 33 32 31 30 30 30 30 28 25 23 21 19 18 16 15 16 16 15 14 14 14 12 11 11 10 9 9 9 7 5 4 3 3 5 6 7 9 11 13 13 12 12 13 11 9 10 12 14 15 16 18 21 24 27 29 31 32 30 28 28 30 32 33 34 35 36 37 38 39 39 38 39 40 40 40 39 37 36 34 31
34 32 32 32 32 33 31 30 30 29 29 29 27 24 22 20 17 16 16 15 15 15 14 13 13 12 10 10 10 11 11 10 8 7 5 4 4 4 4 6 7 9 11 12 12 11 12 14 13 8 8 11 13 14 15 17 19 21 24 26 29 31 30 27 27 28 30 32 34 35 36 36 37 38 39 39 38 37 38 39 39 38 37 35 33
35 33 31 31 32 32 31 30 30 29 29 28 25 24 23 23 20 18 16 15 14 14 14 14 13 12 11 10 10 10 10 9 8 7 6 5 5 5 5 6 7 10 10 10 12 12 13 14 13 8 6 10 12 13 15 16 17 19 20 22 25 29 30 27 25 26 28 30 32 34 36 37 37 38 39 39 37 36 36 37 37 36 35 34 34
35 34 33 33 33 32 31 31 30 29 29 27 25 24 25 25 23 20 18 16 15 14 15 15 14 12 11 10 10 11 11 9 7 7 8 7 6 6 7 7 7 9 10 10 12 13 14 15 13 7 6 9 11 12 14 16 16 17 18 19 22 26 29 28 26 25 27 29 30 32 34 36 37 37 37 38 38 37 36 35 36 35 33 32 32
33 33 34 35 34 33 32 32 29 29 29 28 26 26 26 25 23 21 19 17 15 15 15 15 14 13 13 12 12 12 12 10 8 8 9 9 9 9 9 9 9 10 10 12 13 14 14 15 12 7 6 9 11 12 14 15 15 15 16 17 20 23 27 28 27 25 26 27 29 30 32 34 36 36 36 36 36 36 35 35 35 34 33 31 31
31 31 33 33 33 32 32 30 28 29 30 29 27 27 26 24 23 22 20 18 17 15 15 15 15 15 16 15 14 14 14 12 11 10 10 11 12 12 13 13 12 12 13 14 14 14 14 14 11 8 7 9 11 12 14 14 14 15 15 15 17 20 24 27 26 25 25 26 27 28 30 31 34 35 35 35 36 35 34 34 34 34 34 33 31
30 30 32 32 32 31 31 29 28 29 29 28 27 28 27 25 23 22 21 20 19 17 17 16 16 17 18 17 17 16 16 15 14 14 14 14 15 16 16 17 17 17 16 16 15 15 15 13 10 8 8 10 11 13 14 14 14 15 15 15 16 17 21 24 25 24 24 25 26 27 28 29 31 33 34 34 35 35 35 35 34 33 34 34 32
32 32 33 33 32 30 30 29 28 28 27 27 28 29 28 26 24 22 21 21 20 20 19 18 18 19 19 18 18 19 19 19 19 18 18 18 18 19 19 19 19 19 19 17 17 16 16 13 10 9 9 10 12 13 14 15 14 14 14 14 14 16 18 21 24 24 24 24 24 25 26 27 29 31 32 33 34 34 35 35 34 32 32 33 32
31 33 34 34 33 32 31 31 31 30 28 26 28 30 30 28 26 24 22 22 21 21 21 21 21 21 20 18 18 19 21 22 23 22 21 20 20 20 20 20 20 20 19 18 17 16 15 13 11 10 10 11 12 13 14 15 14 14 14 13 14 15 16 18 22 24 24 23 23 23 24 25 26 28 30 32 33 33 34 34 34 31 30 30 30
30 31 33 33 33 32 31 31 31 32 30 28 27 29 30 29 27 25 24 23 23 22 23 23 23 21 19 17 18 19 21 22 22 22 23 22 21 20 20 20 20 19 19 18 16 15 14 13 11 11 12 13 13 13 14 14 14 13 13 13 13 13 14 15 18 21 22 23 23 22 22 23 24 25 27 29 31 31 32 33 33 31 28 27 28
30 30 31 32 33 32 30 28 28 30 31 29 27 26 28 28 28 27 26 25 24 23 24 24 22 20 18 17 18 19 20 20 20 20 22 22 22 22 21 20 19 19 18 17 15 14 13 13 13 13 14 14 14 14 15 15 14 13 13 13 13 12 12 13 15 18 20 22 23 21 20 20 22 24 25 27 28 29 30 31 32 30 27 25 26
31 31 31 31 32 32 31 30 28 27 28 28 27 26 25 25 26 26 25 24 24 24 24 23 21 18 17 17 18 19 20 21 20 20 21 21 21 22 22 20 19 18 18 16 15 14 14 14 15 16 16 16 16 16 15 15 15 14 13 13 13 12 12 12 13 15 17 20 21 21 19 18 20 21 22 24 26 27 28 29 31 31 28 25 24
31 31 31 31 31 31 31 32 31 28 27 27 27 27 26 25 24 24 23 22 24 25 25 24 22 20 19 18 18 19 21 21 21 20 20 20 21 21 21 20 19 18 17 16 15 15 16 16 17 18 18 18 19 18 17 15 15 15 14 14 14 14 13 12 11 12 14 17 19 21 19 17 17 19 20 21 23 25 26 27 28 30 30 27 23
29 28 28 29 30 30 31 31 31 30 29 27 26 27 27 26 24 22 20 20 21 23 25 24 22 20 19 18 18 19 20 20 19 20 20 20 21 21 21 20 20 19 17 16 16 17 18 19 20 20 20 20 21 20 19 17 16 15 15 15 15 15 14 13 12 12 13 14 17 19 19 17 15 16 18 19 21 23 25 25 26 27 29 28 24
29 27 26 27 28 30 31 30 29 29 29 27 26 26 26 26 24 23 22 21 20 20 21 22 21 20 20 20 21 22 22 21 21 21 21 21 21 21 21 21 21 20 18 17 18 18 20 21 22 22 22 22 22 22 21 20 18 16 16 16 15 15 14 13 12 12 13 13 14 17 18 17 15 14 15 17 19 20 22 23 24 24 26 28 26
29 28 27 26 26 28 30 31 29 27 27 26 26 25 26 27 27 26 26 25 24 23 22 22 21 22 23 24 25 26 26 25 24 24 24 24 23 23 23 23 23 21 20 19 19 20 21 23 24 24 24 24 24 23 23 22 21 19 18 17 17 17 15 13 13 13 13 13 13 15 16 16 14 13 13 14 15 17 18 20 21 22 23 25 26
28 29 29 27 25 26 29 30 30 27 25 24 23 23 25 27 28 28 27 27 26 25 25 25 24 24 24 24 24 25 25 26 26 27 27 27 27 27 26 26 26 25 23 21 21 22 23 24 26 26 26 26 25 25 25 25 24 23 21 20 19 19 17 15 14 13 13 14 13 13 14 15 14 12 11 11 12 14 16 17 18 19 20 21 23
27 29 29 29 28 28 29 30 30 29 27 25 23 22 23 24 26 27 28 28 28 27 27 27 27 26 24 23 23 24 24 25 26 26 27 27 27 27 28 28 28 27 26 25 24 24 25 26 27 27 27 27 27 27 27 27 27 26 25 23 22 21 19 17 16 14 14 14 14 13 13 14 14 13 11 10 10 11 14 15 15 17 18 18 19
28 28 28 28 28 29 30 30 31 31 30 28 27 26 25 25 24 25 25 27 28 29 29 29 28 27 25 25 26 27 27 27 27 27 27 27 27 27 27 27 27 28 28 27 27 27 27 27 27 28 29 29 29 28 28 29 29 29 28 27 26 24 21 20 19 16 15 15 15 15 14 14 14 13 12 11 9 8 11 13 13 14 15 16 16
29 29 29 29 29 29 29 29 31 31 31 30 29 29 29 28 27 26 26 26 26 27 27 28 27 27 28 28 29 29 30 30 31 31 31 31 30 30 29 29 28 28 27 27 27 28 29 29 30 30 30 30 30 29 29 29 29 29 29 28 28 27 24 23 22 20 17 17 16 16 15 15 14 14 13 11 9 8 8 10 12 12 13 15 15
30 30 30 30 29 28 28 28 29 30 31 31 31 31 30 30 30 30 29 29 29 29 29 29 30 30 31 30 30 30 30 30 30 30 30 30 31 31 32 32 32 31 30 29 29 29 29 30 30 31 31 30 29 27 27 26 26 26 26 26 27 28 27 26 25 23 21 19 18 17 17 17 16 15 14 12 11 9 8 8 9 11 12 13 14
Wind_Direction
157 156 154 153 151 150 150 149 146 143 142 141 138 136 137 137 135 134 131 128 128 125 119 117 117 118 119 119 118 112 105 102 101 98 95 92 86 86 91 90 84 80 71 62 54 47 52 60 53 41 34 29 25 24 25 28 31 32 27 17 10 6 352 335 319 313 324 330 330 330 334 335 335 336 334 332 331 331 329 328 326 326 325 324 323
159 159 157 155 154 154 153 150 147 146 145 143 140 139 139 137 137 136 130 127 127 123 118 118 118 122 125 125 126 122 112 107 107 102 97 94 91 90 93 91 87 80 69 59 51 50 58 61 51 39 31 26 24 23 24 26 25 22 17 10 2 359 353 336 320 310 315 324 328 329 332 333 332 334 334 330 329 329 327 326 325 324 322 321 319
164 162 158 155 154 157 157 154 151 150 147 145 144 142 141 140 142 139 131 127 122 116 114 115 114 118 124 129 133 130 120 113 111 107 102 100 98 98 97 92 87 82 71 59 54 58 62 57 46 34 25 23 20 18 21 23 21 15 9 4 355 350 349 338 322 309 307 315 323 324 326 328 327 328 329 327 326 326 325 324 324 323 320 319 317
167 164 160 159 161 162 160 157 154 151 148 147 146 144 143 143 143 139 133 127 120 114 108 105 109 111 116 127 134 133 126 119 116 112 107 106 107 106 102 97 93 88 76 67 65 67 63 49 38 26 20 20 17 13 16 18 15 10 5 360 353 344 341 337 326 314 304 306 315 319 320 322 322 324 325 323 324 324 323 322 323 322 320 317 315
169 165 164 166 165 160 157 156 154 151 149 148 146 145 145 145 144 140 136 129 122 117 106 102 110 110 110 122 132 134 129 122 121 119 112 110 113 109 103 106 108 96 80 75 74 69 56 37 27 21 18 17 14 9 10 12 9 5 359 355 350 343 338 335 329 319 308 302 307 314 317 317 318 321 323 322 321 321 321 321 321 320 318 316 314
170 163 160 161 160 158 157 156 155 154 153 150 148 146 147 148 146 143 140 133 123 114 104 102 110 111 109 117 128 133 131 125 124 123 116 113 113 106 101 115 124 107 86 84 77 57 43 30 19 19 19 15 12 8 6 7 3 358 354 350 346 341 337 334 330 322 312 305 305 310 314 316 316 318 322 322 319 318 318 319 319 319 317 316 315
167 161 160 160 159 159 159 158 158 158 157 154 152 150 149 149 147 143 140 134 121 108 103 106 111 113 113 115 121 128 130 128 127 126 121 117 112 104 100 114 133 125 95 89 76 45 34 30 20 20 19 16 14 10 5 2 358 354 350 346 343 339 334 332 328 323 316 310 308 310 312 314 315 315 319 321 317 315 317 317 316 317 316 315 313
162 162 162 161 161 161 160 159 159 158 158 155 153 151 149 148 146 142 138 130 117 104 103 110 115 116 116 116 118 124 127 128 127 127 126 123 118 113 104 104 130 142 115 90 71 37 32 40 30 23 20 19 16 11 5 359 353 349 348 345 341 337 333 330 326 322 318 313 311 312 312 314 315 316 318 321 319 318 319 317 310 310 312 311 309
163 164 165 164 162 161 161 161 159 159 159 157 154 152 150 147 146 143 138 128 115 105 107 114 117 118 118 118 119 123 125 124 123 124 126 126 123 118 106 96 110 139 140 110 74 43 51 55 34 24 22 18 13 8 4 359 352 347 346 343 340 336 332 329 325 321 318 315 314 315 315 314 315 317 318 321 321 318 318 315 307 304 306 305 303
166 166 165 164 164 163 163 162 161 161 161 159 156 154 152 151 149 143 135 125 115 112 114 115 116 118 119 120 121 120 119 116 116 119 122 129 127 113 112 107 92 96 147 162 119 113 118 60 32 25 20 14 9 6 3 358 353 348 344 343 340 337 332 326 324 321 318 315 316 317 315 312 314 316 317 319 319 318 317 315 310 307 306 303 301
167 166 165 165 165 165 164 164 164 162 160 158 156 154 154 153 149 141 131 122 116 114 111 111 113 116 119 121 120 118 116 111 111 115 120 129 124 99 116 124 90 68 79 202 190 157 154 48 31 23 14 8 6 4 360 354 349 345 343 343 343 341 336 328 322 321 319 316 316 317 313 310 313 316 317 318 319 317 315 313 309 307 306 303 302
166 166 166 166 167 167 167 166 165 163 160 157 155 156 158 155 148 141 131 121 115 111 106 106 109 112 117 119 118 119 119 113 113 120 124 127 120 99 110 117 88 56 43 35 187 173 137 38 25 14 7 5 3 358 353 348 345 342 342 344 346 348 345 336 329 324 321 317 315 316 313 310 313 316 318 318 318 316 314 311 308 304 300 297 296
167 167 167 168 169 169 169 168 166 164 163 160 157 156 158 156 151 146 138 126 115 108 104 103 104 107 112 115 116 120 123 121 122 127 135 142 145 136 113 88 74 47 34 61 160 168 91 20 10 3 2 2 357 351 346 343 341 341 342 346 350 353 351 346 342 336 329 322 315 313 316 314 312 314 317 318 318 315 314 311 308 304 298 295 294
168 168 168 171 171 171 171 170 168 167 166 164 161 158 158 157 155 152 148 142 129 116 107 102 99 99 103 106 109 112 117 124 134 142 156 179 214 221 205 93 71 63 56 89 145 165 356 356 355 355 355 353 347 343 341 340 343 345 347 350 355 357 354 351 350 345 338 331 321 316 320 319 314 313 318 320 317 314 312 310 308 305 299 297 296
168 169 170 172 172 171 171 169 168 167 166 165 164 162 160 159 159 158 157 155 149 138 125 109 99 96 96 99 100 99 99 111 136 163 179 210 254 258 184 162 109 83 81 98 124 148 329 337 344 348 347 343 342 343 342 344 349 352 353 354 355 357 357 354 351 346 341 336 329 323 323 322 318 317 320 321 318 314 312 310 307 304 300 297 298
169 170 171 172 172 172 171 169 168 167 166 165 165 165 163 161 161 161 161 159 157 154 145 130 114 101 95 94 93 90 86 87 100 130 144 127 70 71 86 130 137 107 90 90 90 60 347 335 339 342 341 341 344 348 349 349 354 356 353 353 353 354 355 354 349 344 340 337 335 331 328 326 324 321 322 323 321 318 316 312 308 306 301 297 299
170 172 174 174 174 174 173 171 169 168 168 167 166 167 165 163 162 162 162 163 163 162 156 147 137 119 103 94 88 84 81 76 74 79 81 73 65 63 69 96 124 117 97 88 75 52 11 347 345 343 345 348 351 354 353 352 355 355 352 351 351 350 352 352 347 342 341 340 338 336 333 331 328 325 326 327 326 324 319 313 310 309 303 297 300
174 175 176 176 176 176 175 173 171 169 169 169 167 168 168 167 166 165 164 164 165 166 164 157 149 136 119 105 92 83 79 75 67 61 59 53 48 54 65 79 95 102 97 89 71 40 7 356 355 351 352 356 358 360 0 357 355 354 351 349 348 347 349 349 345 342 343 342 340 338 336 334 332 329 329 330 329 328 322 314 312 311 305 300 303
177 177 176 177 177 177 175 174 173 171 170 170 169 168 168 168 169 170 171 171 171 172 169 162 155 149 139 126 109 91 78 72 64 54 49 41 39 51 69 78 80 80 78 72 54 28 10 3 2 358 358 3 5 6 7 3 358 357 354 350 347 346 348 348 344 342 341 340 340 338 337 337 335 333 333 332 332 331 325 319 316 312 305 303 304
179 177 177 177 177 177 176 175 174 173 172 171 169 167 166 166 167 169 171 173 174 174 171 166 162 161 159 152 138 110 83 72 62 49 42 35 34 53 77 80 75 67 58 45 27 16 10 6 5 3 3 6 7 7 9 7 3 2 360 355 350 348 349 347 345 344 342 340 340 339 338 338 337 335 335 335 333 332 330 327 323 316 309 306 305
178 177 177 177 177 177 177 177 176 176 173 170 168 168 168 168 167 165 165 167 169 173 175 174 172 171 173 173 165 142 98 72 56 41 36 29 29 58 85 83 68 55 44 30 17 9 5 4 5 5 4 4 4 6 8 8 6 5 3 360 356 353 351 348 347 348 345 342 341 340 339 339 338 337 337 336 334 334 334 333 331 325 319 313 309
177 177 176 176 176 176 177 177 177 176 174 172 171 171 172 172 171 171 172 174 176 180 184 186 184 183 186 190 187 173 130 82 52 36 32 25 27 61 96 86 59 46 34 21 13 7 3 1 1 1 1 1 3 5 7 8 8 7 4 2 360 357 356 353 351 350 347 344 343 341 340 340 338 337 337 337 337 338 338 337 335 334 332 328 322
175 175 174 174 175 176 177 177 177 175 175 174 173 173 174 177 179 182 183 185 187 191 194 196 196 196 197 199 200 194 168 109 57 38 31 25 34 71 105 81 45 33 20 11 8 6 1 358 357 358 359 1 3 7 9 8 7 7 5 4 3 1 360 358 355 351 348 347 345 341 340 341 339 337 339 339 339 340 340 340 339 339 340 340 337
173 172 173 174 175 176 177 178 177 177 177 176 176 177 180 183 186 190 191 192 195 199 202 203 203 203 205 206 203 199 192 168 73 44 34 31 48 88 102 60 34 22 14 9 5 3 360 356 356 357 357 0 5 8 10 9 7 6 6 6 5 4 3 0 356 352 350 348 345 342 341 341 340 339 340 341 340 341 342 343 344 345 346 345 345
171 171 172 174 175 176 177 178 179 179 178 179 181 182 184 187 190 193 196 196 198 204 208 210 209 209 210 209 205 201 201 198 150 53 38 33 64 118 99 48 27 16 12 9 2 0 360 356 355 356 355 360 7 8 8 7 6 5 7 8 7 7 5 1 357 354 351 348 345 343 342 342 342 342 343 343 344 345 347 348 348 351 353 353 354
170 170 172 174 175 175 176 177 179 180 181 183 185 185 186 189 191 193 196 198 203 209 212 213 214 214 214 211 205 203 205 208 208 13 27 31 148 153 99 48 18 7 7 4 360 359 0 358 356 357 358 4 9 8 6 4 2 4 7 8 8 8 7 3 358 355 352 349 346 345 344 345 346 347 348 348 348 349 351 350 350 352 355 355 356
169 170 172 174 174 175 176 177 179 181 183 185 187 186 186 188 190 193 197 201 206 211 212 213 214 210 209 207 203 203 207 211 216 245 312 326 195 165 119 33 354 353 354 354 353 353 355 357 357 358 360 4 8 7 5 2 1 4 7 8 8 8 8 6 3 359 355 351 350 349 349 350 350 350 351 351 351 352 354 354 353 354 355 356 357
170 171 172 173 173 175 176 178 179 181 184 187 188 186 187 190 193 195 199 203 208 212 216 218 213 202 198 198 197 199 207 215 222 244 280 293 234 203 208 299 322 334 340 343 345 346 350 355 359 2 5 6 6 7 6 3 1 4 6 7 7 7 8 8 7 4 1 357 355 354 354 353 352 352 352 352 353 354 356 357 357 357 357 359 2
171 171 172 171 172 174 176 179 180 182 185 187 188 189 192 196 199 202 208 215 218 217 216 213 206 198 196 197 197 199 208 220 234 255 277 283 257 234 240 278 307 323 334 339 340 342 348 355 359 4 9 9 7 8 7 4 2 3 5 6 6 5 6 7 6 4 3 1 358 356 355 354 353 354 354 353 354 356 358 359 360 360 1 3 4
169 170 171 172 173 175 176 179 181 183 185 186 189 192 196 200 206 213 220 223 215 207 206 204 200 199 202 203 204 211 224 240 252 261 264 266 264 247 246 274 303 321 332 337 339 337 338 346 354 2 9 10 9 9 7 4 3 3 3 4 5 5 5 6 6 4 4 4 2 359 358 356 354 355 354 354 354 356 359 1 1 2 4 4 3
168 170 172 173 175 176 177 179 181 184 186 188 191 194 196 201 209 213 213 209 201 197 202 205 202 202 209 213 215 225 241 251 251 247 242 249 257 247 252 276 303 320 328 335 340 336 329 333 343 358 9 10 9 9 6 3 3 3 2 2 5 6 5 4 5 6 6 6 5 3 1 359 357 356 356 356 355 357 359 2 4 5 7 7 5
170 172 173 175 176 178 179 181 183 186 188 190 193 195 194 194 193 191 188 188 188 191 197 201 201 207 223 233 233 236 241 242 237 227 220 226 238 247 263 282 303 318 325 331 337 335 327 326 330 344 4 8 8 7 4 1 1 2 1 1 3 6 6 4 3 6 8 8 6 5 4 2 360 359 359 359 358 359 0 3 5 6 7 8 9
173 173 174 175 177 179 182 183 186 189 190 190 191 192 189 184 178 174 174 178 185 192 199 204 210 218 230 238 238 235 232 228 223 216 211 217 235 257 277 288 301 313 318 324 331 333 328 324 323 328 352 2 3 4 2 0 359 358 358 360 2 5 6 4 2 4 8 9 9 8 7 5 3 2 2 2 1 2 3 4 5 7 8 9 10
175 176 177 178 179 182 184 187 190 192 191 191 191 188 186 184 181 179 179 181 187 197 204 209 214 219 222 224 221 216 211 212 216 212 212 222 241 262 280 289 298 306 308 314 322 325 326 325 321 316 336 352 357 359 359 359 357 354 353 355 359 2 5 5 4 4 6 9 10 11 11 9 7 4 3 4 4 4 5 6 6 7 9 9 10
177 179 180 181 183 185 188 190 192 192 192 193 192 190 188 189 191 192 193 194 199 206 209 209 210 210 208 207 209 209 209 214 219 216 220 232 246 261 276 284 289 295 300 308 314 316 318 321 318 307 320 341 349 353 355 356 356 351 347 348 354 359 3 6 6 4 5 8 10 12 13 12 11 9 7 6 6 4 3 5 6 7 9 10 11
178 180 181 183 186 188 191 193 194 193 193 194 196 196 197 198 200 203 207 209 213 215 213 209 207 208 210 213 217 219 220 224 228 230 234 241 250 261 270 276 282 288 293 301 308 309 311 315 310 297 307 329 340 347 350 351 351 349 344 342 347 355 2 6 7 4 4 6 9 11 14 14 14 13 10 9 9 7 5 5 8 9 10 11 13
180 180 182 186 190 192 193 195 195 195 197 199 201 203 204 206 209 211 213 215 218 220 220 217 214 215 218 223 227 229 231 234 237 240 245 249 254 261 265 269 276 282 287 292 299 301 304 307 298 280 294 320 332 340 345 346 345 345 343 338 340 348 357 4 7 5 3 5 8 10 13 14 15 16 13 10 9 9 9 8 9 10 13 15 16
183 184 185 189 192 193 195 197 198 198 200 205 208 208 209 212 214 216 217 218 220 222 224 226 227 227 229 232 235 237 239 240 241 244 248 250 253 258 263 268 273 277 281 287 292 294 297 299 284 267 285 313 324 331 340 343 340 340 340 338 336 340 347 358 5 6 4 4 7 9 12 13 15 17 17 14 11 11 11 12 11 11 13 16 17
185 187 189 191 193 195 197 200 201 201 204 209 211 212 214 215 216 218 220 221 221 223 226 231 234 236 238 241 243 245 245 245 245 247 249 250 252 256 261 267 271 275 280 285 288 289 292 288 271 261 279 304 317 324 332 338 339 336 334 333 334 335 339 350 1 6 4 3 5 7 10 12 14 17 19 18 16 14 14 15 16 15 14 16 18
186 189 192 193 194 196 200 203 205 207 210 212 213 214 216 219 220 222 223 224 226 227 229 232 236 240 242 244 245 246 248 249 249 250 251 252 253 254 258 263 269 275 281 287 290 289 286 275 261 262 280 297 310 319 325 331 335 333 328 327 329 331 333 342 355 3 4 3 2 5 9 12 14 17 20 20 20 19 19 19 20 21 21 22 23
189 192 194 196 197 199 202 205 208 211 214 216 216 216 219 222 224 225 226 227 228 229 229 232 237 241 242 240 241 245 251 256 259 260 260 259 257 256 258 263 270 276 282 288 291 288 277 265 259 268 282 292 302 313 318 322 327 328 326 324 325 326 327 332 344 356 3 3 1 2 7 11 14 16 18 19 21 23 24 24 24 25 26 28 29
191 194 196 199 201 203 206 209 213 214 216 219 220 221 222 223 223 223 225 227 228 227 228 231 235 238 238 239 244 249 255 260 264 266 266 264 262 260 261 264 270 276 281 286 288 283 274 265 265 273 282 290 298 306 311 315 317 319 320 322 322 321 320 323 333 347 357 1 1 1 2 8 14 17 17 18 20 23 25 26 26 27 28 30 33
194 198 200 202 205 208 211 214 216 218 219 221 223 225 227 227 224 223 226 229 229 227 227 230 236 240 242 246 249 252 254 259 262 265 267 268 265 263 264 267 271 275 279 283 285 282 276 270 271 276 283 289 295 300 304 308 311 311 311 316 320 320 317 316 322 335 346 355 359 359 358 2 10 16 17 17 19 21 24 26 27 27 29 30 34
198 202 203 205 209 213 214 216 219 221 222 224 227 230 229 227 225 225 228 231 231 230 231 234 238 242 246 250 252 252 255 259 262 264 267 269 267 266 267 269 272 276 279 282 283 281 276 271 271 276 282 287 292 295 296 300 304 305 305 307 312 316 318 316 315 322 335 345 353 356 356 356 4 12 16 17 17 19 21 23 24 25 27 29 31
204 206 206 208 210 212 214 217 221 224 224 225 229 230 227 223 224 228 232 235 235 236 237 239 240 244 250 255 257 257 259 261 263 265 268 270 269 269 270 271 273 277 278 276 275 275 273 270 270 274 280 285 288 291 292 293 295 298 300 300 302 308 316 318 314 315 323 333 343 350 351 351 355 5 14 16 16 17 19 20 21 23 25 26 28
208 209 211 212 213 212 213 216 220 223 222 223 227 229 227 226 227 231 236 239 241 244 246 247 247 250 254 257 258 260 261 262 263 266 268 269 270 271 273 273 274 274 273 269 268 270 270 269 270 273 279 283 286 289 290 290 289 291 294 296 296 299 306 311 311 312 315 320 329 340 346 347 347 353 4 13 15 15 16 17 17 19 22 24 28
211 212 215 217 220 222 221 219 217 218 218 220 224 229 231 231 231 233 236 240 243 246 249 250 252 255 257 258 260 263 264 264 265 267 268 270 271 272 274 275 274 273 270 267 266 267 267 267 268 271 276 281 284 286 288 289 288 287 289 292 293 294 296 298 302 308 310 311 315 325 335 341 341 340 347 3 12 12 12 12 12 13 17 21 26
212 213 216 217 220 226 228 224 219 218 219 221 225 229 233 235 236 238 240 242 244 245 247 250 252 254 256 260 264 267 269 269 270 270 270 272 273 274 275 275 275 273 271 267 265 265 265 265 265 267 273 278 281 283 286 288 287 286 287 288 290 291 291 289 291 299 304 305 305 310 319 331 335 333 331 341 355 4 7 7 5 6 9 14 21
217 217 218 217 219 225 229 226 221 222 224 227 229 231 234 237 239 241 244 245 246 247 248 250 251 253 257 262 267 269 270 270 270 270 271 272 274 275 276 276 277 276 274 270 268 266 265 264 266 269 272 276 279 281 284 286 286 286 287 288 288 288 286 284 284 289 293 296 298 300 304 315 325 328 325 324 330 346 359 1 358 357 360 4 11
222 222 222 222 222 226 228 227 224 225 227 230 233 235 236 238 241 243 245 247 248 249 251 252 254 257 262 265 267 268 269 269 270 271 271 272 273 273 274 275 276 276 276 274 272 269 266 266 268 270 272 275 278 281 283 285 286 286 287 288 287 286 283 280 279 280 283 287 290 292 293 299 310 318 320 317 314 320 340 352 352 348 349 353 359
221 221 221 221 222 223 224 224 225 227 229 231 235 237 238 241 244 246 248 249 249 251 254 256 258 261 263 265 267 269 270 271 272 273 273 274 275 275 275 275 275 275 276 276 275 274 271 269 268 269 271 274 277 280 282 284 287 288 289 289 287 284 281 279 277 277 278 280 283 285 287 289 295 304 311 310 304 303 314 333 339 337 338 344 350